Regional Weather Roundup
Issued by NWS

Home | Current Version | Previous Version | Graphics & Text | Print | Product List | Glossary On
Versions: 1 2 3 4 5 6 7 8 9 10 11 12 13 14 15 16 17 18 19 20 21 22 23 24 25 26 27 28 29 30 31 32 33 34 35 36 37 38 39 40 41 42 43 44 45 46 47 48 49 50
000
ASUS43 KOAX 190202
RWRNE

WEATHER ROUNDUP FOR NEBRASKA
NATIONAL WEATHER SERVICE OMAHA NE
900 PM CDT WED OCT 18 2017

NOTES: SATELLITE DATA IS BEING USED TO AUGMENT CLOUD COVER ABOVE
       12000 FEET.
       "FAIR" INDICATES FEW OR NO CLOUDS BELOW 12,000 FEET WITH NO
       SIGNIFICANT WEATHER AND/OR OBSTRUCTIONS TO VISIBILITY.


NEZ001>004-019>022-054>056-190300-
NEBRASKA PANHANDLE

CITY           SKY/WX    TMP DP  RH WIND       PRES   REMARKS
SCOTTSBLUFF    CLEAR     48  30  49 E8        30.07S
ALLIANCE       CLEAR     41  30  65 SE10      30.07S
CHADRON        CLOUDY    60  28  29 S15       30.01S
GORDON         FAIR      47  31  55 SE3       30.05F
KIMBALL        CLEAR     48  25  40 S7        30.14R
SIDNEY         CLEAR     45  29  53 SE9       30.12S
$$

NEZ057>060-069>072-079>082-190300-
SOUTHWEST NEBRASKA

CITY           SKY/WX    TMP DP  RH WIND       PRES   REMARKS
NORTH PLATTE   CLOUDY    48  36  63 E3        30.11R
IMPERIAL       CLEAR     49  32  52 SE7       30.11R
LEXINGTON      CLEAR     49  38  66 CALM      30.10S
MCCOOK         CLEAR     55  35  47 NE6       30.11R
OGALLALA       CLEAR     55  35  46 E5        30.10S
$$

NEZ005>010-023>029-035>040-094-190300-
NORTH CENTRAL NEBRASKA

CITY           SKY/WX    TMP DP  RH WIND       PRES   REMARKS
VALENTINE      CLEAR     47  31  53 S3        30.07S
AINSWORTH      CLEAR     46  37  69 S3        30.09S
BROKEN BOW     CLEAR     44  36  73 N5        30.09R
O`NEILL        CLEAR     52  37  56 NE3       30.08R
ORD            CLEAR     45  37  73 CALM      30.07R
THEDFORD       CLEAR     51  34  51 CALM      30.10F
$$

NEZ041-046>049-061>064-073>077-083>087-190300-
SOUTH CENTRAL NEBRASKA

CITY           SKY/WX    TMP DP  RH WIND       PRES   REMARKS
GRAND ISLAND   CLEAR     53  40  61 N7        30.07R
AURORA         CLEAR     54  39  57 N8        30.06R
HASTINGS       CLEAR     54  38  54 N3        30.08R
HEBRON         CLEAR     64  44  48 N5        30.03S
HOLDREGE       CLEAR     52  37  57 N6        30.08S
KEARNEY        CLEAR     54  37  52 N5        30.08S
YORK           CLEAR     55  41  58 CALM      30.05S
$$

NEZ011>018-030>034-042>045-190300-
NORTHEAST NEBRASKA

CITY           SKY/WX    TMP DP  RH WIND       PRES   REMARKS
NORFOLK        CLEAR     54  38  54 CALM      30.05R
ALBION         CLEAR     50  38  64 NW3       30.07S
BLAIR          CLEAR     61  46  56 N9        30.03S
COLUMBUS       CLEAR     49  41  74 NW3       30.05S
FREMONT        CLEAR     61  42  49 N5        30.04R
TEKAMAH        CLEAR     51  44  77 NW6       30.03R
WAYNE          CLEAR     48  38  68 CALM      30.05S
$$

NEZ050>053-065>068-078-088>093-190300-
SOUTHEAST NEBRASKA

CITY           SKY/WX    TMP DP  RH WIND       PRES   REMARKS
LINCOLN        CLEAR     57  43  59 N6        30.04R
OMAHA EPPLEY   CLEAR     55  46  71 N7        30.02R
BEATRICE       CLEAR     56  49  77 NW8       30.02R
FALLS CITY     CLEAR     60  50  69 SE3       30.01R
NEBRASKA CITY  CLEAR     62  50  65 SW5       30.01S
PLATTSMOUTH    CLEAR     64  51  62 CALM      30.02R
$$

NEZ044-045-051>053-067-190300-
OMAHA AREA

CITY           SKY/WX    TMP DP  RH WIND       PRES   REMARKS
OMAHA EPPLEY   CLEAR     55  46  71 N7        30.02R
BLAIR          CLEAR     61  46  56 N9        30.03S
FREMONT        CLEAR     61  42  49 N5        30.04R
MILLARD        CLEAR     66  47  51 CALM      30.02R
OFFUTT AFB     CLEAR     65  47  52 N7        30.01R
PLATTSMOUTH    CLEAR     64  51  62 CALM      30.02R
WAHOO          FAIR      55  43  63 N7        30.04R
$$




USA.gov is the U.S. government's official web portal to all federal, state and local government web resources and services.